Location: Unspecified
(0.0000°N, 0.0000°E)
Time: 13:43:15
(UTC+00:00)

X-37B - Pass Details

Date: 26 November 2021
Orbit: 329 x 342 km, 45.0° (Epoch: 06 December)

Event Time Altitude Azimuth Distance (km) Brightness Sun altitude
Rises 19:41:01 0° 233° (SW) 2,122 5.5 -26.3°
Reaches altitude 10° 19:43:05 10° 240° (WSW) 1,281 4.2 -26.8°
Enters shadow 19:43:43 15° 245° (WSW) 1,037 3.6 -26.9°
